LARETS

Satellite information

Favourite Embed

Satellite Type and Status

PAYLOADIN ORBIT

Key statistics

Satellite LARETS at a glance.

Uptime

7894

Days in orbit

Revolutions

≈ 14.6

Per day

Orbit

SSO

Sun Synchronous Orbit

Inclination

98.4

Latest

Satellite identification and parameters

Extended collection of information and parameters for LARETS.

Object identification

Identified? True

Debris? False

Object name: LARETS

International designator: 2003-042F

Object number (NORAD): 27944

Object ID (CCSDS): 27944

Country: COMMONWEALTH OF INDEPENDENT STATES (CIS)

Current information (Y/N): Y

RCS size: MEDIUM

Orbital parameters

Period: 98.377 minutes

Inclination: 98.3627 deg

SMA: 7059.217 km

Apoapsis: 689.209 km

Periapsis: 672.956 km

RAAN: 277.8706 deg

Eccentricy: 0.0011512

Argument of periapsis: 216.5827 deg

Mean anomaly: 143.459 deg

Mean motion: 14.63753414 rev/day

Mean motion (dot): 0.00000121 rev/day2

B* drag term: 0.000032831 1/REarth

Two-line elements (TLE)

Creation date: May 8, 2025, 3:01 a.m.

Reference frame: TEME

Reference center: EARTH

Epoch: May 7, 2025, 9:44 p.m. UTC

TLE line 0: 0 LARETS

TLE line 1: 1 27944U 03042F 25127.90556244 .00000121 00000-0 32831-4 0 9992

TLE line 2: 2 27944 98.3627 277.8706 0011512 216.5827 143.4590 14.63753414154072

Live tracking on map

Real-time ground track for satellite LARETS.

In-orbit conjunctions

A list of the most updated potential collisions computed for object LARETS.

Target Orbit TCA Probability of collision Miss distance Type
FENGYUN 1C DEB SSO 2025-01-28 15:21:06 0.0001178018 147.0 (m) DEBRIS
CZ-6A DEB LEO 2024-12-24 02:06:53 0.0006772066 607.0 (m) DEBRIS
PSLV R/B SSO 2024-12-13 15:42:54 0.0008761235 961.0 (m) ROCKET BODY
CZ-6A DEB LEO 2024-12-12 23:26:13 0.0001012362 36.0 (m) DEBRIS
CZ-6A DEB LEO 2024-11-05 08:59:35 0.0003503075 125.0 (m) DEBRIS

Associated space launch

Mozhayets 4 (RS 22) was also a training satellite built by the Mozhaisky military academy. It also tested components to be used in upgraded GLONASS satellites.

LARETS was lifted into orbit during the mission ‘Kosmos-3M | Mozhaets-4’, on board a Kosmos-3M space rocket.

The launch took place on Sept. 27, 2003, 6:11 a.m. from 132/1 (132L).

For more information about the launch, click the button.

Launch to space Kosmos-3M | Mozhaets-4
Kosmos-3M | Mozhaets-4

Agency: N/A

Status: Launch Successful

Launch date: Sept. 27, 2003, 6:11 a.m. UTC

Rocket: Kosmos-3M

Launch pad: 132/1 (132L)

Location: Plesetsk Cosmodrome, Russian Federation

...

Latest news about this satellite

There are no fresh news available about this satellite. Check back as we update our databases every day.


Newsletter sign-up

Weekly statistics, charts and insights to help you stay on top of the space industry.